Temperature
11 11 11 11 11 11 11 11 11 11 12 12 12 12 13 13 13 13 13 13 14 14 14 14 14 14 14 14 14 14 14 14 14 15 15 15 15 15 15 15 15 15 15
11 11 11 11 11 11 11 11 11 11 11 12 12 12 12 12 13 13 13 13 13 13 13 13 14 14 14 14 14 14 14 14 14 14 14 14 14 15 15 15 15 15 15
11 11 11 10 10 10 11 11 11 11 11 11 11 12 12 12 12 12 12 13 13 13 13 13 13 13 14 14 14 13 14 14 14 14 14 14 14 14 14 14 14 14 14
11 11 11 10 10 10 10 10 10 10 11 11 11 11 11 12 12 12 12 12 12 12 13 13 13 13 13 13 13 13 13 13 13 13 13 13 13 13 14 14 14 13 13
11 11 10 10 10 10 10 10 10 10 10 10 11 11 11 11 11 11 12 12 12 12 12 12 12 13 13 13 13 13 13 13 13 13 13 13 13 13 13 13 13 13 13
11 10 10 10 10 10 10 10 10 10 10 10 10 10 11 11 11 11 11 12 12 12 12 12 12 12 13 13 13 13 13 13 13 13 13 13 13 13 13 13 13 13 12
11 11 10 10 10 10 10 10 10 10 10 10 10 10 10 11 11 11 11 11 11 12 12 12 12 12 12 12 13 13 13 13 13 13 13 13 13 13 13 13 13 12 12
11 11 10 10 10 10 10 10 10 10 10 10 10 10 10 10 10 10 11 11 11 11 11 11 12 12 12 12 12 12 13 13 13 13 13 13 13 13 13 13 13 12 12
11 11 11 10 10 10 10 10 10 10 10 10 10 10 10 10 10 10 10 11 11 11 11 11 11 12 12 12 12 12 12 12 13 13 13 13 13 13 13 12 12 12 11
11 11 11 10 10 10 10 10 10 10 10 10 10 10 10 10 10 10 10 10 11 11 11 11 11 11 12 12 12 12 12 12 12 12 12 12 12 12 12 12 12 12 12
12 11 11 11 10 10 10 10 10 10 10 10 10 10 10 10 10 10 10 10 11 11 11 11 11 11 11 11 12 12 12 12 12 12 12 12 12 12 12 12 12 12 12
12 12 11 11 11 11 10 10 10 10 10 10 10 10 10 10 10 10 10 10 10 11 11 11 11 11 11 11 11 11 12 12 12 12 12 12 12 12 12 12 12 11 11
12 12 12 11 11 11 11 11 10 10 10 10 10 10 10 10 10 10 10 10 10 10 10 11 11 11 11 11 11 11 11 11 12 12 12 12 12 11 11 11 11 11 11
13 12 12 12 11 11 11 11 11 11 11 11 11 11 10 10 10 10 10 10 10 10 11 11 11 11 11 11 11 11 11 11 11 11 11 11 11 11 11 11 11 11 11
13 13 13 12 12 12 11 11 11 11 11 11 11 11 11 11 11 10 10 10 10 10 10 11 11 11 11 11 11 11 11 11 11 11 11 11 11 11 10 10 10 10 10
14 14 13 13 12 12 12 11 11 11 11 11 11 11 11 11 11 11 10 11 11 11 11 11 11 11 11 11 11 11 11 11 10 10 10 10 10 10 10 10 10 10 10
15 14 14 13 13 13 12 12 12 11 11 11 11 11 11 11 11 11 11 11 11 11 11 11 11 11 11 11 10 10 10 10 10 10 10 10 10 10 10 10 9 9 9
15 15 14 14 13 13 13 12 12 12 12 11 11 11 11 11 11 11 11 11 11 11 11 11 11 11 11 11 10 10 10 10 10 10 10 10 10 10 9 9 9 9 9
16 15 15 15 14 14 13 13 12 12 12 12 11 11 11 11 11 11 11 11 11 11 11 11 11 11 11 11 11 10 10 10 10 10 10 9 9 9 9 9 9 9 9
16 16 15 15 15 14 14 13 13 13 12 12 12 12 11 11 11 11 11 11 11 11 11 11 11 11 11 11 11 11 10 10 10 10 9 9 9 9 9 9 9 8 8
16 16 16 15 15 15 14 14 13 13 13 13 13 12 12 12 12 11 11 11 11 12 11 11 11 11 11 11 11 11 10 10 10 10 9 9 9 9 9 9 8 8 8
16 16 16 16 15 15 15 14 14 14 13 13 13 13 12 12 12 12 12 12 11 12 12 12 12 11 11 11 11 11 11 10 10 10 9 9 9 9 9 8 8 8 8
16 16 16 16 15 15 15 15 14 14 14 14 13 13 13 12 12 12 12 12 12 12 12 12 12 12 12 11 11 11 11 11 10 10 9 9 9 9 9 8 8 8 8
15 15 15 15 15 15 15 15 15 15 14 14 14 13 13 13 13 13 12 12 12 12 12 12 12 12 12 12 12 12 11 11 11 10 10 9 9 9 8 8 8 8 8
14 14 14 15 15 15 15 15 15 15 15 14 14 14 14 13 13 13 13 12 12 12 12 12 12 12 12 12 12 12 12 11 11 11 10 10 10 9 9 8 8 8 8
13 13 13 14 14 14 14 14 14 15 15 15 14 14 14 14 13 13 13 13 13 12 12 12 12 12 12 12 12 12 12 11 11 11 11 11 10 10 9 9 8 8 8
Wind_Speed
7 7 8 8 8 8 7 8 8 7 8 8 8 7 7 7 6 4 3 1 2 3 3 5 5 5 5 4 4 4 4 4 4 2 1 1 3 4 4 5 6 6 7
6 6 7 7 7 8 8 8 8 8 8 8 7 7 7 7 7 6 4 3 1 1 2 3 4 4 5 4 4 4 4 4 4 4 2 2 2 4 5 5 4 5 6
5 6 7 7 8 8 8 8 8 8 8 8 8 8 8 7 7 6 5 5 4 3 2 2 3 5 4 4 4 4 4 4 3 4 3 2 2 3 4 4 5 5 7
4 5 6 7 7 7 7 7 8 8 8 8 8 8 8 7 6 6 5 5 5 4 3 2 2 3 4 4 4 4 4 5 5 5 4 3 3 3 4 5 5 4 4
4 5 5 6 6 6 7 7 8 8 8 8 8 8 8 7 6 6 5 5 5 4 4 3 2 2 3 3 4 4 5 4 4 5 4 4 4 4 4 4 6 6 4
3 4 5 6 6 7 7 7 7 8 8 8 8 8 9 7 10 9 7 5 4 4 4 4 3 3 2 2 4 5 6 6 5 4 4 5 5 4 5 6 6 6 4
2 4 5 5 6 6 6 7 7 7 7 7 8 8 8 9 11 11 10 6 6 5 4 3 3 3 3 3 3 4 3 4 5 5 5 5 6 7 8 7 6 4 4
3 4 4 5 5 5 6 6 6 5 6 6 7 8 8 10 13 11 9 6 5 5 5 4 3 3 3 3 4 5 4 3 2 3 4 4 4 6 7 7 8 7 6
3 4 4 4 4 5 5 6 4 4 5 5 5 7 8 9 13 11 9 5 5 5 5 5 3 3 4 5 6 5 5 4 5 7 7 6 8 11 11 9 8 8 5
5 4 4 3 3 4 4 4 3 3 4 4 5 6 7 8 12 12 9 4 5 4 5 5 5 4 5 5 4 5 5 3 4 5 7 8 8 9 10 7 8 8 5
4 3 3 3 3 3 3 2 3 3 4 5 5 5 6 8 10 12 11 5 4 4 4 4 4 6 6 6 5 4 5 5 5 6 6 6 6 6 5 5 4 6 5
4 4 4 3 3 1 2 2 2 3 3 4 5 5 5 6 8 9 11 9 6 3 3 4 4 6 6 6 5 6 8 7 5 6 6 5 5 5 5 6 8 8 6
4 5 4 3 2 2 1 2 2 2 2 3 3 4 5 5 6 10 10 9 8 4 3 4 5 7 7 5 6 8 6 5 5 6 5 4 3 4 5 5 7 10 12
6 6 5 4 4 3 2 2 2 2 2 2 2 3 4 4 4 5 6 5 6 4 4 5 6 8 7 6 6 5 4 4 5 5 5 4 3 4 4 4 4 4 5
7 6 5 5 5 4 4 4 4 4 5 4 3 2 2 4 5 7 5 3 3 2 2 3 3 3 3 4 4 4 4 4 4 3 4 4 4 4 3 3 3 3 3
7 7 6 5 5 4 4 4 7 8 8 9 8 6 5 6 7 7 7 6 4 1 3 2 2 2 1 2 2 2 2 3 3 3 4 4 4 4 4 3 3 3 4
9 8 6 6 6 5 5 5 5 5 7 9 10 10 9 8 7 6 5 5 3 2 2 1 1 1 0 1 1 1 1 1 2 3 4 4 4 4 4 4 4 4 4
10 10 9 7 7 6 6 6 5 5 5 5 6 9 10 9 7 6 4 2 1 1 1 2 2 2 2 2 2 2 2 2 2 3 3 4 4 4 4 4 4 4 4
10 8 8 7 7 7 6 6 6 6 6 6 4 5 7 8 7 6 4 2 3 3 3 3 3 3 3 3 3 2 3 3 3 3 3 4 4 4 4 4 4 6 4
10 14 12 8 7 7 7 7 7 7 7 6 7 6 3 4 4 4 5 5 5 5 5 5 4 4 4 4 4 3 3 3 4 3 3 4 4 4 5 5 5 5 4
9 10 14 10 8 9 8 9 8 8 8 8 8 8 9 7 7 7 6 6 7 7 7 6 5 5 5 4 4 5 5 4 4 4 4 4 4 4 4 5 5 5 4
8 8 9 10 10 9 9 9 8 8 9 10 8 7 12 8 7 7 7 8 8 8 7 6 6 6 6 7 6 6 6 6 6 5 5 5 5 4 4 4 5 4 4
8 9 9 9 10 11 11 9 9 10 10 10 9 8 7 8 9 9 9 9 8 8 7 7 7 7 7 8 8 8 8 8 7 7 7 6 6 5 5 5 6 5 5
8 10 10 10 10 10 10 11 11 11 11 10 10 9 9 9 9 10 10 8 8 8 8 8 9 11 11 10 11 12 13 13 12 10 10 8 8 6 6 5 6 6 6
8 9 10 10 10 11 11 11 11 11 11 11 11 10 9 10 10 10 9 9 9 9 10 10 9 10 13 14 14 15 17 19 17 14 12 8 8 8 7 6 5 5 6
9 9 9 9 9 10 11 11 12 12 12 12 11 11 10 10 10 10 9 9 9 10 10 10 12 14 15 16 19 21 21 21 21 19 14 8 9 8 8 7 8 6 6
Wind_Direction
351 351 356 355 357 3 7 2 358 357 358 -0 360 2 5 5 359 357 350 291 208 197 191 188 190 180 174 178 182 178 180 172 185 171 152 144 160 157 145 155 165 165 172
346 352 355 355 358 4 1 356 356 359 360 0 359 4 6 6 5 9 10 17 64 153 176 178 178 168 172 169 175 180 182 180 174 166 156 148 141 151 141 137 134 139 138
351 357 358 358 0 359 355 354 357 359 359 1 4 6 3 2 4 7 15 29 41 55 82 128 149 153 166 156 162 178 182 179 162 155 155 138 112 128 126 119 116 108 114
356 1 358 353 352 351 352 356 359 359 1 1 1 0 358 359 4 11 23 36 42 45 48 70 110 146 163 161 174 181 173 171 163 155 150 141 130 130 134 134 127 112 111
356 356 347 343 350 355 358 357 358 3 4 359 2 2 0 2 9 16 24 37 40 41 33 31 61 113 160 171 172 177 173 170 161 163 161 153 155 154 158 145 137 123 99
344 341 340 349 356 358 354 355 0 2 0 5 6 4 5 7 11 26 30 33 35 43 38 25 36 49 69 124 151 167 175 174 167 164 164 164 166 156 146 145 139 141 136
324 332 339 346 352 352 354 359 360 356 0 4 4 5 4 360 20 31 36 39 38 38 35 33 45 42 56 79 94 110 126 155 167 162 164 171 167 165 155 151 148 137 123
308 321 329 341 344 349 358 359 354 353 359 1 3 2 2 6 19 29 39 40 40 34 27 29 44 35 51 94 98 88 74 66 112 143 159 170 164 158 155 146 135 113 99
287 298 310 325 334 345 352 348 348 353 1 3 360 5 6 2 15 29 38 31 37 29 22 22 26 42 61 90 101 102 88 67 71 91 103 113 131 139 138 133 136 136 128
263 277 294 306 317 327 333 334 338 347 350 359 6 5 5 0 8 23 29 28 31 23 18 17 25 48 65 81 101 112 107 89 90 88 84 85 97 116 127 142 151 148 134
252 271 290 297 296 301 327 337 339 351 0 5 3 359 3 2 4 16 22 24 18 22 23 12 12 41 65 74 82 93 112 110 98 99 93 89 88 90 91 93 108 140 140
238 257 274 286 295 317 337 340 352 359 4 360 356 352 353 355 360 8 20 25 23 29 15 358 8 45 65 76 83 99 103 99 96 97 94 90 89 88 87 86 86 78 77
229 247 259 273 277 280 283 309 334 348 347 341 348 344 337 342 352 7 15 19 21 25 6 17 38 51 56 65 82 93 93 94 99 99 99 91 85 94 97 91 83 83 76
227 243 248 253 262 260 250 243 251 272 292 308 317 322 325 331 343 350 352 358 9 19 15 21 43 52 56 61 67 66 69 89 103 108 107 95 88 93 91 93 99 94 85
227 237 241 240 244 251 247 235 231 232 215 227 245 252 282 309 307 325 336 334 336 342 27 34 33 34 45 49 54 59 65 80 90 95 108 108 105 102 90 84 96 90 98
224 233 231 231 235 235 246 267 243 235 244 238 230 224 237 252 284 314 331 335 335 59 81 69 57 49 61 72 87 76 69 88 101 112 117 119 121 119 108 89 85 104 117
219 226 223 221 224 227 226 236 266 272 250 246 243 239 238 253 273 296 319 338 350 103 96 121 143 154 140 120 118 117 118 111 117 124 129 132 130 125 121 119 114 111 116
220 227 222 220 219 220 221 223 225 241 266 272 253 242 241 244 252 267 288 331 349 41 178 197 208 207 199 188 181 168 151 137 134 140 140 143 144 140 139 143 144 142 141
219 224 223 220 217 217 217 219 221 227 236 249 263 266 241 234 238 245 228 202 225 233 224 219 217 212 209 203 196 187 175 169 165 157 160 163 160 152 155 159 159 157 149
225 227 218 217 217 215 214 216 221 225 231 238 244 243 213 184 214 229 213 211 218 226 223 221 219 213 208 203 197 186 179 180 176 174 175 175 173 170 171 172 172 172 181
230 229 222 218 219 219 217 219 222 221 226 233 240 232 198 202 220 223 217 217 220 224 221 217 215 211 206 200 195 194 192 192 190 185 182 180 176 178 180 177 180 181 175
236 231 221 220 221 221 221 220 218 221 226 232 241 240 217 211 222 225 224 225 223 220 213 207 211 211 206 201 197 196 198 199 196 190 187 184 181 180 174 176 178 177 179
245 240 233 228 224 224 224 222 220 223 227 230 232 229 215 216 224 227 229 228 221 217 210 206 211 215 211 209 204 198 201 205 201 191 187 187 185 184 180 184 185 182 191
258 249 244 238 229 225 225 226 225 225 226 228 228 227 224 221 222 226 227 226 220 217 209 206 211 215 209 207 210 210 212 211 204 198 190 189 190 189 185 188 192 194 197
279 264 254 247 239 233 231 230 228 227 226 226 227 226 224 222 223 226 225 222 218 218 214 209 212 215 215 211 208 211 214 212 206 200 193 189 192 191 187 189 191 195 197
309 290 274 262 252 243 237 235 233 230 229 228 226 224 222 222 223 224 221 217 217 220 218 213 213 212 212 213 215 215 213 211 208 202 193 188 191 195 191 195 196 195 197
Height
1520 1516 1513 1509 1506 1503 1500 1497 1495 1492 1489 1487 1484 1483 1481 1480 1478 1477 1477 1477 1478 1479 1481 1482 1484 1487 1489 1491 1494 1496 1499 1503 1506 1508 1512 1514 1517 1520 1523 1526 1529 1531 1534
1521 1518 1514 1511 1508 1505 1501 1499 1496 1493 1490 1488 1485 1483 1482 1480 1478 1477 1475 1475 1476 1477 1478 1480 1482 1484 1486 1488 1491 1493 1495 1498 1501 1504 1507 1510 1513 1516 1519 1522 1525 1527 1530
1522 1519 1515 1512 1509 1506 1503 1500 1497 1495 1492 1489 1487 1484 1482 1481 1479 1478 1476 1475 1475 1476 1477 1478 1480 1482 1484 1485 1488 1490 1492 1495 1497 1500 1503 1506 1509 1512 1516 1518 1521 1524 1527
1523 1519 1516 1513 1510 1507 1504 1502 1499 1496 1494 1491 1488 1486 1484 1482 1481 1480 1478 1477 1476 1476 1477 1478 1479 1481 1482 1484 1486 1488 1490 1492 1494 1497 1500 1503 1506 1509 1513 1515 1518 1521 1523
1523 1520 1517 1514 1511 1509 1506 1503 1501 1498 1495 1493 1490 1488 1486 1484 1482 1481 1480 1479 1478 1477 1478 1478 1479 1480 1482 1483 1485 1486 1488 1490 1492 1494 1497 1500 1503 1506 1509 1512 1515 1518 1521
1523 1521 1518 1515 1513 1510 1507 1505 1502 1500 1497 1495 1492 1490 1488 1486 1484 1483 1481 1480 1480 1479 1479 1479 1479 1480 1481 1483 1484 1486 1487 1489 1490 1492 1494 1497 1500 1503 1507 1509 1512 1515 1518
1524 1522 1519 1516 1514 1511 1509 1506 1504 1501 1499 1497 1494 1492 1489 1488 1486 1485 1483 1482 1481 1481 1480 1480 1480 1481 1482 1483 1484 1485 1486 1488 1489 1491 1493 1496 1498 1501 1504 1507 1510 1513 1515
1524 1522 1520 1517 1515 1513 1510 1508 1505 1503 1501 1498 1496 1494 1492 1489 1488 1486 1485 1484 1483 1482 1482 1481 1481 1481 1482 1483 1484 1485 1486 1487 1488 1491 1493 1495 1498 1501 1503 1506 1509 1512 1515
1524 1523 1520 1518 1516 1514 1511 1509 1507 1504 1502 1500 1498 1496 1493 1491 1490 1488 1487 1486 1485 1483 1483 1482 1482 1483 1483 1484 1484 1485 1486 1487 1489 1491 1493 1495 1497 1500 1502 1505 1508 1511 1513
1524 1523 1521 1519 1517 1515 1512 1510 1508 1506 1504 1501 1499 1497 1495 1493 1492 1490 1489 1488 1487 1485 1484 1484 1484 1484 1484 1485 1486 1487 1487 1488 1490 1491 1493 1495 1497 1500 1502 1505 1508 1510 1513
1524 1523 1521 1519 1517 1515 1513 1511 1509 1507 1505 1503 1501 1499 1497 1495 1494 1492 1491 1490 1489 1487 1486 1486 1485 1485 1486 1486 1487 1488 1489 1490 1491 1493 1494 1496 1498 1500 1502 1505 1508 1510 1513
1523 1522 1521 1520 1518 1516 1514 1512 1510 1508 1506 1504 1502 1500 1498 1497 1495 1494 1493 1491 1490 1490 1489 1488 1488 1488 1488 1488 1489 1490 1491 1492 1493 1494 1496 1497 1499 1501 1503 1505 1508 1510 1513
1522 1521 1520 1519 1518 1516 1514 1512 1510 1508 1506 1504 1503 1501 1499 1498 1497 1495 1494 1493 1492 1491 1491 1490 1490 1490 1490 1491 1491 1492 1493 1494 1495 1496 1497 1498 1500 1502 1504 1506 1508 1510 1512
1521 1520 1519 1518 1517 1515 1514 1512 1510 1508 1507 1505 1503 1502 1500 1499 1498 1497 1495 1494 1494 1493 1492 1492 1492 1492 1492 1493 1493 1494 1494 1495 1496 1497 1498 1500 1501 1503 1504 1506 1508 1509 1511
1519 1518 1517 1516 1515 1514 1513 1512 1510 1508 1507 1505 1503 1502 1500 1499 1499 1497 1496 1496 1495 1494 1494 1494 1493 1493 1494 1494 1495 1495 1496 1497 1498 1498 1499 1501 1502 1504 1505 1507 1508 1509 1511
1516 1515 1515 1514 1513 1512 1511 1510 1509 1507 1506 1504 1503 1502 1500 1499 1498 1497 1497 1496 1496 1495 1495 1494 1494 1494 1495 1495 1496 1496 1497 1498 1499 1499 1500 1502 1503 1504 1506 1507 1508 1510 1511
1512 1512 1512 1511 1510 1509 1508 1508 1507 1506 1505 1503 1502 1501 1500 1499 1498 1497 1496 1496 1495 1495 1495 1495 1495 1495 1495 1495 1496 1496 1497 1498 1499 1500 1501 1502 1503 1505 1506 1507 1508 1510 1511
1508 1508 1507 1507 1507 1506 1505 1504 1504 1503 1502 1501 1501 1500 1498 1497 1497 1496 1495 1495 1495 1494 1494 1494 1494 1494 1495 1495 1495 1496 1497 1498 1499 1500 1501 1502 1503 1505 1506 1507 1508 1509 1510
1503 1503 1503 1502 1502 1502 1501 1501 1500 1499 1498 1498 1498 1497 1496 1495 1495 1494 1493 1493 1493 1492 1492 1492 1493 1493 1493 1494 1494 1495 1496 1496 1498 1499 1500 1501 1502 1504 1505 1506 1507 1508 1510
1497 1497 1497 1497 1496 1496 1496 1495 1495 1495 1494 1494 1493 1493 1493 1492 1491 1491 1490 1490 1490 1489 1490 1490 1490 1490 1491 1492 1492 1493 1494 1495 1496 1497 1498 1499 1501 1502 1503 1504 1506 1507 1508
1490 1490 1491 1490 1490 1490 1490 1489 1489 1489 1488 1488 1488 1489 1488 1488 1487 1487 1487 1486 1486 1486 1486 1486 1487 1487 1488 1488 1489 1490 1491 1492 1493 1494 1495 1497 1498 1499 1501 1502 1503 1504 1505
1482 1482 1483 1482 1483 1483 1483 1483 1483 1483 1482 1482 1482 1483 1483 1482 1482 1482 1482 1482 1482 1482 1482 1482 1482 1483 1484 1484 1485 1486 1487 1488 1489 1491 1492 1493 1495 1496 1497 1499 1500 1501 1502
1473 1474 1474 1474 1474 1475 1475 1475 1475 1475 1475 1475 1476 1476 1476 1476 1476 1476 1477 1477 1477 1477 1477 1477 1477 1478 1479 1479 1480 1481 1482 1483 1485 1486 1488 1489 1490 1492 1493 1494 1495 1497 1498
1465 1464 1464 1465 1465 1465 1466 1466 1466 1467 1467 1468 1468 1468 1468 1469 1469 1469 1470 1471 1471 1471 1471 1472 1472 1473 1474 1474 1475 1476 1477 1478 1480 1481 1482 1484 1485 1487 1488 1489 1491 1492 1493
1457 1456 1455 1455 1455 1456 1456 1456 1457 1457 1458 1458 1459 1460 1460 1461 1461 1462 1463 1463 1464 1465 1465 1466 1466 1467 1468 1469 1469 1470 1472 1473 1474 1475 1476 1478 1480 1481 1483 1484 1485 1487 1488
1450 1448 1447 1446 1446 1446 1446 1446 1447 1447 1448 1448 1449 1450 1451 1452 1452 1453 1454 1455 1456 1457 1458 1459 1460 1461 1462 1462 1463 1465 1466 1467 1468 1469 1471 1472 1473 1475 1477 1478 1480 1481 1482